Weather in Rodniki

Russia / Ivanovo Oblast     57°06′25″N   41°44′00″E
temp.,
°C
wind,
m/s
gust,
m/s
humid.,
%
clouds,
%
prec.,
mm/h
press.,
hPa
HPBL,
m
6 august, fri
fri600:00+16s2261100 0.0 101761
03:00+15e497491 0.3 1015209
06:00+14ese4980100 0.3 1015206
09:00+17se487176 0.6 1014429
12:00+22s575599 0.1 10141160
15:00+21s6770100 0.5 1014761
18:00+16sse4994100 0.7 1015304
21:00+15se3899100 4.7 1015276
7 august, sat
sat700:00+16e4998100 4.9 1014276
03:00+15e51398100 5.9 1014401
06:00+15e5109581 0.0 1014405
09:00+19ese5782100 0.3 1013531
12:00+24se465683 0.4 10131065
15:00+24ese466528 1.4 1013484
18:00+22ene4765100 0.0 1013182
21:00+20ese3872100 0.0 1013188
8 august, sun
sun800:00+19se3568100 0.0 101478
03:00+19se4117096 0.0 1014250
06:00+20sse41261100 0.0 1014298
09:00+23s4952100 0.0 1015438
12:00+29s583380 0.0 10141282
15:00+31s4730100 0.0 10141697
18:00+22w2560100 0.0 1016112
21:00+20w1172100 0.0 101713
9 august, mon
mon900:00+20wsw237740 0.0 101767
03:00+17w11860 0.0 101811
06:00+18w11790 0.0 101956
09:00+24w23572 0.0 1019580
12:00+27w35445 0.0 10181669
15:00+29w453720 0.0 10182116
18:00+27wnw24440 0.0 1018546
21:00+20n226613 0.0 101915
10 august, tue
tue1000:00+19e2275100 0.0 101914
03:00+18ese1175100 0.0 102011
06:00+19s1173100 0.0 102032
09:00+23sse2262100 0.0 1020277
12:00+22se0167100 0.0 102095
15:00+26s114999 0.0 1019976
18:00+24wsw2457100 0.0 1019152
21:00+19wnw1289100 0.3 101948